Location: Unspecified
(43.3830°N, 0.0000°E)
Time: 09:24:38
(UTC+00:00)

Vanguard 2 - Pass Details

Date: 20 June 2019
Orbit: 553 x 2938 km, 32.9° (Epoch: 18 July)

Event Time Altitude Azimuth Distance (km) Brightness Sun altitude
Rises 09:23:02 0° 237° (WSW) 3,417 10.6 51.9°
Reaches altitude 10° 09:25:19 10° 228° (SW) 2,703 10.3 52.3°
Maximum altitude 09:31:21 37° 162° (SSE) 1,924 10.5 53.3°
Drops below altitude 10° 09:40:50 10° 101° (ESE) 4,282 12.1 54.9°
Sets 09:45:27 0° 95° (E) 5,689 12.5 55.7°
